Location: Unspecified
(0.0000°N, 0.0000°E)
Time: 23:12:21
(UTC+02:00)

Orbus 21S - Visible Passes

Search period start: 02 September 2014 00:00
Search period end: 12 September 2014 00:00
Orbit: 324 x 33479 km, 24.1° (Epoch: 02 September)

Date Brightness Start Highest point End Pass type
(mag) Time Alt. Az. Time Alt. Az. Time Alt. Az.
02 Sep 8.7 02:15:43 78° SSE 02:19:37 78° SSE 05:52:31 10° ESE visible
02 Sep 9.9 21:57:48 11° E 23:22:37 15° ESE 00:21:57 10° ESE visible
03 Sep 9.7 03:02:34 10° WNW 04:17:25 23° W 05:44:35 17° W visible
03 Sep 8.3 21:54:36 10° NW 01:21:09 87° SSE 07:03:56 10° SE visible
04 Sep 6.5 17:19:59 10° NNW 00:25:21 34° ESE 17:44:54 10° ENE visible
05 Sep 7.9 23:06:01 10° WNW 01:02:50 77° WNW 08:14:08 10° ESE visible
06 Sep 7.3 18:28:30 10° NW 01:24:31 52° ESE 03:27:47 10° ESE visible
08 Sep 7.4 00:19:52 10° WNW 02:02:32 56° W 09:23:30 10° ESE visible
08 Sep 8.0 19:37:05 10° NW 02:01:28 69° SE 04:42:52 10° ESE visible
10 Sep 5.8 09:59:06 10° WSW 10:27:23 38° S 10:32:15 10° ESE visible
10 Sep 8.4 20:46:02 10° NW 02:34:18 75° SSW 05:54:55 10° ESE visible
11 Sep 10.3 22:12:07 18° ESE 23:19:06 22° ESE 00:00:00 19° ESE visible
